Location: Kunchanapalle
(16.4623°N, 80.6176°E)
Time: 18:56:03
(UTC+00:00)

CZ-2C R/B - Pass Details

Date: 13 August 2020
Orbit: 784 x 870 km, 98.3° (Epoch: 20 September)

Event Time Altitude Azimuth Distance (km) Brightness Sun altitude
Rises 13:47:49 0° 21° (NNE) 3,285 5.8 -11.0°
Reaches altitude 10° 13:50:13 10° 28° (NNE) 2,363 4.9 -11.6°
Maximum altitude 13:55:13 46° 101° (E) 1,067 2.8 -12.7°
Drops below altitude 10° 14:00:18 10° 174° (S) 2,408 4.8 -13.9°
Sets 14:02:45 0° 180° (S) 3,353 5.6 -14.4°
